Weather History for Coffeyville, KS

Change the Weather History Date:

Tuesday, September 17, 2013

  Actual Average Record
Temperature  
Mean Temperature 72 °F -  
Max Temperature 77 °F 80 °F 93 °F (2004)
Min Temperature 68 °F 57 °F 48 °F (2000)
Cooling Degree Days 8    
Growing Degree Days 22 (Base 50)    
Moisture  
Dew Point 67 °F    
Average Humidity 88    
Maximum Humidity 94    
Minimum Humidity 74    
Precipitation  
Precipitation 0.14 in - - ()
Sea Level Pressure  
Sea Level Pressure 30.07 in    
Wind  
Wind Speed 6 mph (ESE)    
Max Wind Speed 10 mph    
Max Gust Speed -    
Visibility 6 miles    
Events Rain    
Averages and records for this station are not official NWS values.
T = Trace of Precipitation, MM = Missing Value Source: NWS Daily Summary

Daily Weather History Graph

Daily Weather History Graph

Search for Another Location

Airport:

Trip Planner

Search our weather history database for the weather conditions in past years. The results will help you decide how hot, cold, wet, or windy it might be!

Date:

Astronomy

Sep. 17, 2013 Rise Set
Actual Time 7:06 AM CDT 7:26 PM CDT
Civil Twilight 6:40 AM CDT 7:52 PM CDT
Nautical Twilight 6:09 AM CDT 8:22 PM CDT
Astronomical Twilight 5:38 AM CDT 8:53 PM CDT
Moon 6:13 PM CDT (9/17) 5:03 AM CDT (9/17)
Length of Visible Light 13h 12m
Length of Day
12h 20m
Waxing Gibbous, 96% of the Moon is Illuminated
Sep 17
Waxing Gibbous
Sep 19
Full
Sep 26
Last Quarter
Oct 4
New
Oct 11
First Quarter

Hourly Weather History & Observations

Time (CDT) Temp. Dew Point Humidity Pressure Visibility Wind Dir Wind Speed Gust Speed Precip Events Conditions
12:52 AM 69.1 °F 66.9 °F 93% 30.14 in 7.0 mi ENE 5.8 mph - N/A   Overcast
1:34 AM 69.8 °F 66.2 °F 88% 30.15 in 5.0 mi ENE 5.8 mph - N/A   Overcast
1:52 AM 69.1 °F 66.9 °F 93% 30.13 in 5.0 mi ENE 8.1 mph - N/A   Overcast
2:52 AM 68.0 °F 66.0 °F 93% 30.11 in 5.0 mi East 6.9 mph - N/A   Overcast
3:34 AM 68.0 °F 66.2 °F 94% 30.11 in 5.0 mi East 6.9 mph - N/A   Scattered Clouds
3:52 AM 68.0 °F 66.0 °F 93% 30.10 in 5.0 mi Calm Calm - N/A   Partly Cloudy
4:04 AM 68.0 °F 66.2 °F 94% 30.12 in 5.0 mi North 4.6 mph - N/A   Scattered Clouds
4:13 AM 68.0 °F 66.2 °F 94% 30.11 in 5.0 mi North 3.5 mph - N/A   Mostly Cloudy
4:36 AM 68.0 °F 66.2 °F 94% 30.10 in 4.0 mi East 5.8 mph - N/A   Scattered Clouds
4:52 AM 68.0 °F 66.0 °F 93% 30.08 in 4.0 mi East 5.8 mph - N/A   Clear
5:52 AM 68.0 °F 66.0 °F 93% 30.09 in 4.0 mi East 3.5 mph - N/A   Mostly Cloudy
6:52 AM 69.1 °F 66.9 °F 93% 30.12 in 3.0 mi Calm Calm - 0.04 in Rain Light Rain
7:52 AM 69.1 °F 66.9 °F 93% 30.12 in 2.5 mi East 4.6 mph - 0.06 in Rain Light Rain
8:02 AM 69.8 °F 66.2 °F 88% 30.13 in 3.0 mi East 4.6 mph - 0.00 in   Overcast
8:52 AM 71.1 °F 66.9 °F 87% 30.12 in 7.0 mi SE 4.6 mph - 0.00 in Rain Light Rain
9:52 AM 71.1 °F 68.0 °F 90% 30.13 in 6.0 mi ESE 4.6 mph - 0.00 in Rain Light Rain
10:52 AM 72.0 °F 68.0 °F 87% 30.11 in 5.0 mi ESE 6.9 mph - 0.00 in Rain Light Rain
12:52 PM 73.9 °F 66.9 °F 79% 30.10 in 8.0 mi SSE 6.9 mph - N/A   Mostly Cloudy
1:52 PM 73.9 °F 66.9 °F 79% 30.09 in 6.0 mi South 4.6 mph - 0.01 in Rain Light Rain
2:52 PM 73.0 °F 68.0 °F 84% 30.06 in 5.0 mi SSE 9.2 mph - 0.00 in Rain Light Rain
3:52 PM 73.0 °F 68.0 °F 84% 30.02 in 7.0 mi SE 10.4 mph - 0.03 in Rain Light Rain
4:52 PM 75.9 °F 70.0 °F 82% 29.99 in 8.0 mi SE 9.2 mph - 0.00 in   Scattered Clouds
5:52 PM 77.0 °F 68.0 °F 74% 29.98 in 10.0 mi SE 9.2 mph - N/A   Partly Cloudy
6:52 PM 75.9 °F 66.9 °F 74% 29.97 in 10.0 mi SE 5.8 mph - N/A   Clear
7:52 PM 72.0 °F 68.0 °F 87% 29.97 in 9.0 mi SE 3.5 mph - N/A   Clear
8:52 PM 71.1 °F 66.9 °F 87% 29.97 in 8.0 mi ESE 3.5 mph - N/A   Clear
9:52 PM 70.0 °F 66.9 °F 90% 29.97 in 7.0 mi Calm Calm - N/A   Clear
10:52 PM 73.0 °F 69.1 °F 87% 29.98 in 9.0 mi South 8.1 mph - N/A   Mostly Cloudy
11:52 PM 72.0 °F 69.1 °F 91% 29.97 in 8.0 mi SSE 5.8 mph - N/A   Clear